[[[{"header":{"parameterUnit":"kt","parameterCategory":2,"dx":1,"dy":1,"la1":30.253999710083008,"la2":30.299108505249023,"lo1":-89.0895004272461,"lo2":-89.04439544677734,"nx":28,"ny":28,"refTime":"2022-10-24T21:00:00:Z","depth":0,"parameterNumber":1,"parameterNumberName":"U-component_of_WINDS"},"data":[-9.4877,-9.5037,-9.5097,-9.5308,-9.5397,-9.5551,-9.5624,-9.5726,-9.5822,-9.6012,-9.6132,-9.6207,-9.6325,-9.6482,-9.6614,-9.6645,-9.6695,-9.671,-9.6742,-9.6623,-9.661,-9.6597,-9.6562,-9.6722,-9.6722,-9.6856,-9.6858,-9.6858,-9.4788,-9.4878,-9.5007,-9.5171,-9.5282,-9.5304,-9.5436,-9.5527,-9.5664,-9.5783,-9.5903,-9.6075,-9.6218,-9.6333,-9.648,-9.6556,-9.6572,-9.6591,-9.6584,-9.6601,-9.6477,-9.6439,-9.6575,-9.6575,-9.6575,-9.6575,-9.6575,-9.6575,-9.4641,-9.4735,-9.4869,-9.5009,-9.5108,-9.5218,-9.5317,-9.5407,-9.5533,-9.5694,-9.5739,-9.5894,-9.6023,-9.6228,-9.631,-9.6432,-9.6421,-9.6459,-9.6468,-9.6475,-9.6475,-9.627,-9.646,-9.646,-9.646,-9.646,-9.646,0,-9.4551,-9.4594,-9.472,-9.4865,-9.4971,-9.5088,-9.5205,-9.5269,-9.5377,-9.5476,-9.5625,-9.572,-9.5908,-9.6053,-9.6203,-9.6281,-9.6309,-9.6319,-9.6345,-9.6322,-9.6284,-9.6303,-9.6095,-9.6311,-9.631,-9.6309,-9.6309,-9.6308,-9.4404,-9.4507,-9.4674,-9.4756,-9.4834,-9.4963,-9.5052,-9.514,-9.523,-9.5387,-9.5465,-9.5612,-9.5734,-9.5961,-9.6061,-9.6201,-9.6215,-9.6291,-9.6235,-9.6212,-9.6213,-9.6204,-9.6214,-9.6297,-9.6299,-9.63,-9.6301,0,-9.4316,-9.441,-9.4588,-9.4743,-9.4785,-9.4888,-9.502,-9.5117,-9.5192,-9.5336,-9.5375,-9.5492,-9.5635,-9.5725,-9.5905,-9.5947,-9.6118,-9.613,-9.6074,-9.608,-9.6155,-9.6145,-9.6388,-9.6424,-9.6263,-9.6264,-9.6266,0,-9.4226,-9.4357,-9.4489,-9.4587,-9.4737,-9.482,-9.4966,-9.5044,-9.5156,-9.5269,-9.5317,-9.5423,-9.552,-9.5639,-9.5701,-9.5857,-9.5891,-9.5931,-9.5944,-9.5924,-9.5918,-9.5968,-9.5958,-9.5976,-9.5974,-9.5973,-9.5972,0,-9.4074,-9.4299,-9.4459,-9.4525,-9.4701,-9.4774,-9.4851,-9.4975,-9.506,-9.5186,-9.5242,-9.5382,-9.5457,-9.5565,-9.5641,-9.56,-9.5835,-9.5794,-9.5875,-9.5873,-9.5917,-9.5912,-9.611,-9.597,-9.597,-9.597,-9.5969,0,-9.4013,-9.4139,-9.4357,-9.4505,-9.456,-9.4665,-9.4808,-9.4919,-9.5047,-9.5092,-9.5191,-9.5231,-9.5375,-9.5328,-9.5528,-9.5452,-9.5524,-9.5576,-9.5583,-9.5596,-9.5539,-9.5634,-9.5818,-9.5838,-9.5616,-9.5614,-9.5611,0,-9.3812,-9.4058,-9.413,-9.4335,-9.446,-9.4504,-9.4623,-9.4734,-9.4804,-9.492,-9.4998,-9.5128,-9.5112,-9.5164,-9.5252,-9.5335,-9.5435,-9.5326,-9.5487,-9.5492,-9.5449,-9.562,-9.5622,-9.5769,-9.5575,-9.5579,-9.5581,0,-9.3667,-9.3879,-9.391,-9.3988,-9.4147,-9.4251,-9.4388,-9.4536,-9.4609,-9.4728,-9.4843,-9.503,-9.5024,-9.511,-9.5155,-9.5242,-9.537,-9.5223,-9.5227,-9.5244,-9.5564,-9.5566,-9.5591,-9.5382,-9.5387,-9.539,-9.5552,0,-9.355,-9.3684,-9.3774,-9.3941,-9.4036,-9.4169,-9.4261,-9.4349,-9.4384,-9.4453,-9.4625,-9.4736,-9.4883,-9.4935,-9.4968,-9.5139,-9.5123,-9.5115,-9.507,-9.5183,-9.5238,-9.5261,-9.4981,-9.498,-9.4979,-9.4979,0,0,-9.3332,-9.3525,-9.3597,-9.3732,-9.3815,-9.3856,-9.399,-9.4076,-9.4247,-9.4303,-9.4281,-9.4557,-9.4647,-9.4845,-9.4887,-9.4948,-9.4986,-9.4941,-9.5129,-9.5146,-9.5161,-9.5219,-9.5241,-9.4978,-9.4977,-9.4977,-9.4977,0,-9.3307,-9.3401,-9.3533,-9.3626,-9.3765,-9.3832,-9.3864,-9.4007,-9.4057,-9.4226,-9.4253,-9.4367,-9.4584,-9.4675,-9.475,-9.4922,-9.4934,-9.4961,-9.5022,-9.512,-9.5137,-9.5153,-9.5212,-9.5233,-9.4975,-9.4976,-9.4976,0,-9.3178,-9.3285,-9.3358,-9.355,-9.364,-9.3766,-9.3745,-9.3878,-9.3973,-9.4005,-9.417,-9.4243,-9.4373,-9.4548,-9.463,-9.461,-9.4881,-9.4811,-9.4818,-9.4827,-9.4926,-9.4947,-9.4965,-9.4722,-9.4721,-9.4719,0,0,-9.3143,-9.3267,-9.3405,-9.3551,-9.3606,-9.3706,-9.3782,-9.3823,-9.3939,-9.3985,-9.4078,-9.4189,-9.4317,-9.4398,-9.4521,-9.4701,-9.4733,-9.4776,-9.4789,-9.4798,-9.4812,-9.4913,-9.4934,-9.4715,-9.4715,-9.4714,0,0,-9.3125,-9.3291,-9.3305,-9.3485,-9.3596,-9.374,-9.3824,-9.3844,-9.3964,-9.3958,-9.4032,-9.4064,-9.423,-9.4299,-9.4226,-9.4506,-9.4461,-9.4481,-9.4454,-9.447,-9.4482,-9.4459,-9.4214,0,0,0,0,0,-9.3143,-9.3271,-9.3282,-9.3326,-9.3566,-9.3734,-9.3765,-9.383,-9.3797,-9.3863,-9.3944,-9.3952,-9.4275,-9.4213,-9.4254,-9.4332,-9.4654,-9.4665,-9.4675,-9.4683,-9.4699,-9.4713,0,0,0,0,0,0,-9.3161,-9.3214,-9.3279,-9.3427,-9.3482,-9.373,-9.3689,-9.371,-9.3792,-9.3791,-9.3937,-9.3957,-9.4013,-9.4196,-9.4232,-9.4305,-9.4202,-9.4658,-9.4667,-9.4675,-9.4688,-9.4702,-9.4713,0,0,0,0,0,-9.3175,-9.3218,-9.3586,-9.3426,-9.3473,-9.359,-9.3685,-9.3702,-9.3766,-9.389,-9.391,-9.3807,-9.4014,-9.4049,-9.4217,-9.4287,-9.4178,-9.4191,-9.4664,-9.4671,-9.4678,-9.4695,0,0,0,0,0,0,-9.3186,-9.3235,-9.3597,-9.3614,-9.3382,-9.3577,-9.361,-9.3695,-9.3861,-9.3883,-9.3763,-9.3761,-9.4016,-9.4042,-9.4069,-9.4278,-9.4158,-9.4171,-9.418,-9.467,-9.4675,-9.468,0,0,0,0,0,0,-9.3212,-9.3249,-9.3606,-9.3546,-9.3557,-9.3565,-9.3594,-9.3746,-9.3862,-9.3725,-9.3728,-9.376,-9.3975,-9.4039,-9.4059,-9.4294,-9.4142,-9.4155,-9.4164,-9.417,-9.4674,-9.4679,0,0,0,0,0,0,-9.3229,-9.326,-9.3542,-9.3551,-9.356,-9.3753,-9.37,-9.3942,-9.3813,-9.3717,-9.3803,-9.3799,-9.3971,-9.3993,-9.4053,-9.4278,-9.429,-9.4143,-9.4152,-9.4158,-9.4162,0,0,0,0,0,0,0,-9.3242,-9.3017,-9.3498,-9.3554,-9.3562,-9.377,-9.3774,-9.3779,-9.3812,-9.3808,-9.3804,-9.38,-9.4069,-9.4083,-9.4097,-9.4265,0,0,-9.4141,-9.4148,0,0,0,0,0,0,0,0,-9.3005,-9.3014,-9.3498,-9.3502,-9.3505,-9.377,-9.3774,-9.3778,-9.3811,-9.3808,-9.3805,-9.3802,-9.4072,-9.4084,-9.4095,0,0,0,0,0,0,0,0,0,0,0,0,0,0,0,-9.3499,-9.3502,0,-9.3771,-9.3774,-9.3777,-9.3811,-9.3808,-9.3806,-9.3803,-9.4076,-9.4085,-9.4095,0,0,0,0,0,0,0,0,0,0,0,0,0,0,0,0,0,0,0,0,0,0,0,0,0,0,0,0,0,0,0,0,0,0,0,0,0,0,0,0,0,0,0,0,0,0,0,0,0,0,0,0,0,0,0,0,0,0,0,0,0,0,0,0,0,0,0,0,0]}],[{"header":{"parameterUnit":"kt","parameterCategory":2,"dx":1,"dy":1,"la1":30.253999710083008,"la2":30.299108505249023,"lo1":-89.0895004272461,"lo2":-89.04439544677734,"nx":28,"ny":28,"refTime":"2022-10-24T21:00:00:Z","depth":0,"parameterNumber":2,"parameterNumberName":"V-component_of_WINDS"},"data":[7.1418,7.1521,7.1565,7.1702,7.1764,7.1865,7.1914,7.1982,7.2047,7.2171,7.2249,7.23,7.2378,7.2481,7.2566,7.2586,7.2621,7.2629,7.2652,7.2577,7.2569,7.2562,7.2542,7.2636,7.2636,7.2724,7.2725,7.2725,7.1369,7.1431,7.1515,7.1625,7.1699,7.1718,7.1805,7.1865,7.1953,7.2032,7.211,7.2221,7.2313,7.2388,7.2483,7.2532,7.2545,7.2555,7.2552,7.2565,7.2486,7.2465,7.2544,7.2544,7.2544,7.2544,7.2544,7.2544,7.129,7.135,7.1441,7.1533,7.1599,7.1672,7.1735,7.1796,7.1877,7.1982,7.2012,7.2112,7.2196,7.2327,7.2379,7.2458,7.2453,7.2475,7.2482,7.2487,7.249,7.2364,7.2475,7.2475,7.2475,7.2475,7.2474,0,7.1246,7.1278,7.136,7.1456,7.1524,7.16,7.1677,7.1717,7.1791,7.1854,7.1949,7.2009,7.2128,7.222,7.2316,7.2365,7.2387,7.2392,7.2409,7.2397,7.2377,7.2392,7.2266,7.2388,7.2387,7.2387,7.2386,7.2386,7.1173,7.1235,7.1348,7.14,7.1452,7.1533,7.159,7.1651,7.1709,7.181,7.1857,7.195,7.2027,7.2168,7.2234,7.2321,7.2332,7.2376,7.2345,7.2333,7.2337,7.2333,7.2341,7.238,7.2381,7.2381,7.2382,0,7.1129,7.1194,7.1303,7.1407,7.1435,7.1496,7.1584,7.1644,7.1694,7.1783,7.1807,7.1884,7.1974,7.2032,7.2143,7.2171,7.2276,7.2283,7.225,7.2255,7.2302,7.2298,7.2438,7.2461,7.2361,7.2362,7.2363,0,7.1092,7.117,7.1264,7.1323,7.1412,7.1471,7.1557,7.1608,7.168,7.175,7.1785,7.1849,7.1913,7.1987,7.2027,7.2122,7.2141,7.2169,7.2179,7.2167,7.2164,7.2196,7.2193,7.2195,7.2194,7.2193,7.2193,0,7.1017,7.1155,7.1252,7.1293,7.1409,7.1452,7.1502,7.1581,7.1634,7.1712,7.1747,7.1832,7.1878,7.1944,7.1995,7.1973,7.2111,7.209,7.2139,7.2138,7.2166,7.2164,7.2274,7.2192,7.2191,7.2191,7.2191,0,7.0997,7.1077,7.1204,7.1303,7.1336,7.1397,7.1487,7.1553,7.1633,7.1663,7.1724,7.1752,7.1837,7.1814,7.1932,7.1889,7.1934,7.1967,7.1971,7.1982,7.1954,7.2011,7.2109,7.2122,7.1994,7.1993,7.1991,0,7.0896,7.104,7.1091,7.121,7.1285,7.1321,7.139,7.1459,7.1505,7.1575,7.1624,7.1701,7.1695,7.1727,7.1778,7.1831,7.1886,7.1824,7.1924,7.1927,7.1906,7.1996,7.1996,7.2081,7.1971,7.1973,7.1974,0,7.0824,7.0962,7.0979,7.103,7.113,7.1191,7.1269,7.1359,7.1403,7.1473,7.1542,7.1648,7.165,7.1699,7.1729,7.1779,7.185,7.1773,7.1775,7.1787,7.1963,7.1965,7.1979,7.186,7.1862,7.1864,7.1958,0,7.0786,7.0864,7.0912,7.1017,7.1073,7.1147,7.121,7.126,7.1286,7.1331,7.1429,7.1495,7.1582,7.161,7.1632,7.1727,7.172,7.1718,7.1699,7.1756,7.1789,7.1802,7.1646,7.1646,7.1646,7.1646,0,0,7.0673,7.0786,7.0836,7.0914,7.0964,7.0997,7.1072,7.1124,7.1226,7.126,7.125,7.1409,7.1461,7.1573,7.1595,7.1628,7.1651,7.1626,7.1728,7.1737,7.1745,7.1779,7.1791,7.1645,7.1645,7.1645,7.1645,0,7.0672,7.0729,7.0802,7.0859,7.0945,7.0989,7.1006,7.1095,7.1127,7.122,7.1244,7.1308,7.1429,7.1485,7.1528,7.1616,7.1628,7.1637,7.1666,7.1723,7.1732,7.1741,7.1776,7.1787,7.1644,7.1644,7.1644,0,7.0615,7.0682,7.0723,7.0836,7.0891,7.0964,7.0961,7.1035,7.109,7.1116,7.1208,7.1252,7.1328,7.1423,7.1468,7.1459,7.1604,7.1566,7.1569,7.1574,7.1633,7.1643,7.1653,7.1525,7.1524,7.1524,0,0,7.0605,7.0676,7.0764,7.084,7.0873,7.0938,7.0981,7.101,7.1079,7.1106,7.1162,7.1227,7.1299,7.1344,7.1413,7.1509,7.153,7.1549,7.1554,7.1559,7.1567,7.1626,7.1637,7.1521,7.1521,7.1521,0,0,7.0599,7.0705,7.0718,7.0814,7.0881,7.0969,7.1013,7.1031,7.1099,7.1097,7.1145,7.1164,7.1254,7.1294,7.1256,7.1407,7.1387,7.1397,7.1378,7.1386,7.1391,7.138,7.1258,0,0,0,0,0,7.0628,7.0693,7.0704,7.0729,7.0868,7.0964,7.0982,7.1025,7.1012,7.1047,7.1097,7.1105,7.1285,7.1252,7.1275,7.1316,7.1491,7.1496,7.1501,7.1499,7.1507,7.1513,0,0,0,0,0,0,7.0638,7.0669,7.0702,7.0793,7.0824,7.0962,7.0949,7.0963,7.101,7.1011,7.1096,7.1108,7.1144,7.1243,7.1263,7.1302,7.1251,7.1493,7.1497,7.1502,7.1502,7.1508,7.1514,0,0,0,0,0,7.0647,7.0671,7.0884,7.0792,7.082,7.0893,7.0947,7.0959,7.0995,7.107,7.1083,7.1024,7.1144,7.1164,7.1255,7.1292,7.1238,7.1245,7.1496,7.1499,7.1503,7.1505,0,0,0,0,0,0,7.0653,7.0682,7.089,7.09,7.077,7.0887,7.0906,7.0955,7.1052,7.1066,7.1,7.1,7.1145,7.116,7.1175,7.1286,7.1227,7.1234,7.1239,7.1499,7.1501,7.1504,0,0,0,0,0,0,7.0669,7.069,7.0895,7.0866,7.0873,7.088,7.0898,7.0979,7.1053,7.0977,7.0979,7.0999,7.1122,7.1158,7.1169,7.1295,7.1218,7.1225,7.123,7.1233,7.1501,7.1503,0,0,0,0,0,0,7.0678,7.0696,7.0863,7.0869,7.0875,7.099,7.0952,7.1092,7.1031,7.0972,7.1026,7.1024,7.1119,7.1132,7.1166,7.1286,7.1293,7.1219,7.1223,7.1227,7.1229,0,0,0,0,0,0,0,7.0686,7.0555,7.0831,7.0871,7.0877,7.0993,7.0995,7.0998,7.103,7.1028,7.1027,7.1025,7.1178,7.1186,7.1194,7.1279,0,0,7.1218,7.1221,0,0,0,0,0,0,0,0,7.0548,7.0553,7.0832,7.0834,7.0836,7.0993,7.0995,7.0997,7.103,7.1029,7.1027,7.1026,7.118,7.1187,7.1193,0,0,0,0,0,0,0,0,0,0,0,0,0,0,0,7.0832,7.0834,0,7.0993,7.0995,7.0997,7.103,7.1029,7.1027,7.1026,7.1182,7.1187,7.1192,0,0,0,0,0,0,0,0,0,0,0,0,0,0,0,0,0,0,0,0,0,0,0,0,0,0,0,0,0,0,0,0,0,0,0,0,0,0,0,0,0,0,0,0,0,0,0,0,0,0,0,0,0,0,0,0,0,0,0,0,0,0,0,0,0,0,0,0,0]}]]]